RH
86 92 88 93 91 91 94 94 93 93 95 97 95 94 93 92 93 97 97 96 95 96 95 95 95 91 94 96 94 94 94 86 96 96 97 94 97 98 98 98 96 98 98
84 88 87 84 91 92 90 91 91 93 92 97 97 96 96 97 97 95 95 96 96 94 95 93 92 83 94 95 96 93 87 81 91 93 95 98 97 97 94 85 93 89 87
84 80 81 79 88 90 91 91 91 90 91 92 95 95 97 95 95 95 94 94 93 92 94 95 95 93 95 96 95 91 96 96 92 95 98 99 98 97 93 83 82 90 89
80 79 78 74 76 91 93 93 92 93 94 96 95 95 92 92 93 94 96 98 97 97 96 96 95 96 96 96 95 95 96 95 93 96 99 97 90 94 95 93 81 82 80
78 79 80 80 80 84 92 92 90 93 95 96 95 94 93 93 94 97 96 97 97 98 97 96 95 90 86 90 97 98 96 97 96 94 98 98 98 96 95 94 89 91 82
67 83 74 80 79 89 91 93 92 96 96 95 95 92 94 85 97 95 94 97 96 96 98 97 94 87 89 90 87 87 91 97 97 96 99 99 99 96 95 95 85 85 73
66 74 74 76 81 84 93 94 96 95 90 92 92 89 83 82 94 97 95 97 92 94 97 98 96 91 86 84 73 68 74 80 88 97 98 98 96 96 94 93 90 86 88
85 80 84 80 81 94 95 95 94 90 86 81 82 80 80 81 91 98 84 73 76 81 78 73 77 80 81 64 53 53 58 58 57 67 83 79 78 72 77 77 78 83 81
98 90 94 92 94 95 95 95 89 85 86 89 89 79 74 78 91 83 70 65 69 78 81 85 80 84 83 73 57 65 70 72 80 81 79 79 79 80 72 57 64 58 61
97 97 96 91 94 95 94 94 86 85 88 86 93 94 85 80 91 86 63 55 62 66 66 67 80 80 88 88 71 70 76 80 81 73 69 73 69 70 74 70 73 78 72
95 95 96 96 98 97 97 96 94 90 93 96 96 93 91 89 92 88 79 60 65 70 72 75 78 84 85 85 81 87 94 89 83 83 79 70 67 65 80 95 91 82 80
96 97 98 98 97 96 96 97 91 92 95 97 98 99 99 98 95 97 95 88 82 82 91 90 91 93 93 92 87 90 87 82 86 93 93 76 54 56 65 66 64 68 73
97 98 98 97 97 96 97 98 98 97 98 99 99 99 99 99 99 97 97 95 93 98 99 96 93 92 88 86 78 75 74 70 64 62 70 66 66 61 53 48 54 71 74
97 97 97 98 96 94 88 88 90 93 96 96 98 99 99 99 99 99 99 98 92 96 89 93 88 85 88 71 74 67 67 70 74 74 67 60 65 52 55 49 49 50 54
76 72 68 66 69 74 76 73 76 84 82 88 89 78 71 69 74 83 95 95 94 89 77 90 89 92 91 86 84 73 71 71 70 74 66 62 55 56 46 48 51 59 56
60 57 55 52 54 58 53 58 78 78 78 79 72 63 78 82 83 82 80 78 77 74 82 77 78 72 68 70 73 82 76 68 73 80 73 66 61 62 52 51 62 63 65
53 55 55 53 51 52 52 51 53 66 77 77 78 80 74 73 71 71 72 74 69 71 66 69 70 71 75 77 74 74 73 74 81 76 70 71 63 58 57 59 62 67 64
64 68 56 53 48 48 48 45 54 66 66 66 70 64 69 66 66 71 76 67 65 63 59 68 70 74 78 75 72 70 66 69 62 68 74 66 62 58 59 60 63 67 64
61 63 61 62 60 52 52 54 62 63 65 64 62 65 67 70 70 71 76 68 61 55 64 63 64 68 69 65 68 73 70 72 60 73 67 61 63 60 59 63 59 60 62
66 67 62 56 60 61 60 60 64 62 64 65 67 60 58 57 59 61 63 56 54 54 56 61 64 59 64 62 67 63 67 72 68 66 62 63 64 61 63 61 58 59 64
52 57 59 57 56 55 65 63 61 57 61 67 55 53 64 63 61 55 52 52 49 56 56 54 58 60 68 69 62 69 64 68 68 66 66 66 65 63 67 59 53 52 57
56 54 54 60 64 65 68 69 65 63 52 48 43 36 50 46 49 51 52 51 54 57 54 54 54 51 57 56 59 59 60 70 68 65 66 61 61 63 65 56 56 57 52
55 52 58 66 64 65 67 68 70 64 51 48 37 33 37 46 48 51 52 52 54 57 54 55 54 58 62 62 66 68 67 66 68 66 60 58 63 67 68 63 60 55 50
48 49 54 61 65 64 68 67 65 54 50 46 39 42 46 46 54 48 53 52 50 53 56 55 52 48 53 59 67 64 66 71 63 60 61 64 67 68 69 67 60 48 49
40 50 51 61 61 60 61 65 65 51 43 38 41 39 45 45 52 51 56 54 53 61 56 57 53 49 62 61 62 60 71 78 59 62 60 59 61 62 68 60 54 53 50
43 47 47 58 58 56 58 60 57 49 46 42 43 46 46 47 48 54 56 53 53 64 61 61 51 54 59 62 61 68 79 78 64 69 60 66 66 66 65 54 49 52 52
Wind_Speed
3 5 7 4 3 3 3 4 4 5 6 6 5 4 3 2 3 5 4 5 6 6 5 5 6 7 4 0 1 2 2 3 3 0 1 2 3 6 3 5 4 5 3
4 5 7 5 5 3 2 4 5 5 5 6 6 7 8 8 8 8 9 7 6 5 6 7 4 5 7 3 5 5 3 3 4 3 1 1 4 2 2 5 5 2 4
6 4 6 6 5 4 3 4 5 6 6 6 6 8 8 8 10 11 11 11 10 9 8 9 6 7 6 5 4 7 5 4 1 3 2 3 3 2 3 5 5 4 3
7 5 4 5 4 6 5 5 5 6 7 7 9 8 8 8 8 7 9 9 8 7 8 9 8 8 7 6 7 7 6 5 4 2 3 2 2 2 1 3 2 3 2
7 7 6 5 5 6 6 5 6 7 7 7 8 8 7 7 5 7 8 8 7 8 8 9 8 12 18 13 5 5 6 4 3 2 3 2 1 1 2 2 3 3 3
7 7 6 7 7 8 6 6 7 7 7 8 10 9 9 6 7 11 8 7 7 7 7 7 6 10 13 16 17 18 11 2 1 2 2 4 3 2 2 2 2 2 2
5 10 8 7 7 8 9 12 13 11 12 11 10 10 9 8 9 8 11 6 7 6 6 5 6 4 4 7 12 13 15 17 17 6 8 4 3 4 2 4 5 3 2
2 6 5 8 10 13 13 12 11 10 11 10 10 8 7 7 10 8 15 11 10 10 8 6 4 3 6 7 8 11 12 12 9 8 8 5 5 2 3 2 3 2 4
6 5 8 10 12 14 13 12 10 11 11 10 9 10 9 10 13 15 13 10 10 9 8 8 6 7 8 9 10 9 9 7 8 11 11 11 12 14 11 6 6 4 3
10 9 10 12 14 13 11 11 11 10 11 8 10 9 13 11 17 8 10 7 9 7 8 9 17 12 17 13 8 7 8 4 3 4 4 6 7 11 14 9 5 5 3
8 10 11 13 13 13 12 10 10 11 11 10 10 9 10 11 13 18 16 9 7 7 6 6 6 17 17 16 12 7 4 3 5 5 4 4 5 6 5 4 2 3 2
9 10 11 12 10 9 13 11 11 11 11 9 7 7 7 9 14 19 19 14 13 9 6 4 5 12 13 11 8 10 10 7 4 4 4 3 4 3 2 2 4 2 1
12 12 13 12 11 9 11 12 9 8 8 6 6 6 6 5 7 14 14 14 13 8 4 5 6 6 7 6 8 7 5 4 4 4 3 3 2 1 3 3 3 4 3
13 12 11 11 11 11 9 8 7 7 6 6 6 6 5 4 4 4 4 4 7 5 5 2 1 1 4 3 4 4 4 3 2 2 2 2 2 3 3 3 3 3 2
12 11 11 10 11 11 10 8 7 5 5 5 4 4 4 3 2 1 0 1 1 1 0 2 2 2 2 3 3 4 4 5 4 4 3 3 3 3 3 3 2 2 2
11 9 8 9 9 8 9 9 14 11 11 10 10 7 4 6 6 7 6 5 2 6 4 4 3 4 4 3 4 3 3 5 3 4 3 3 3 3 3 4 2 2 3
11 9 8 8 8 7 6 7 7 6 11 11 11 10 9 6 6 6 8 8 3 4 4 3 3 2 2 4 4 4 3 4 4 4 3 3 3 3 4 3 3 2 3
7 11 6 6 7 7 6 6 5 5 4 3 5 4 4 4 6 8 10 9 4 3 4 4 3 4 4 4 3 2 3 3 3 3 4 3 4 3 3 4 3 0 1
6 5 6 5 5 8 6 5 5 6 5 4 2 3 2 2 3 4 2 1 1 3 3 4 4 4 3 3 2 2 2 2 1 3 3 4 4 3 4 3 4 6 2
5 9 6 5 4 6 6 5 5 6 6 4 4 4 2 2 2 2 2 2 4 4 4 3 3 4 4 3 2 3 4 2 2 2 4 4 4 3 3 4 4 3 2
5 5 7 3 4 5 5 5 5 9 6 5 4 4 7 4 3 3 3 4 4 4 4 3 1 1 4 4 2 3 3 2 4 4 4 4 4 5 5 2 4 5 4
5 4 4 5 5 5 4 4 4 5 6 6 4 4 8 2 4 5 4 4 4 5 3 2 2 2 4 4 2 1 3 4 4 4 4 4 4 5 4 3 4 4 2
4 6 5 5 5 6 4 4 3 3 6 6 5 5 3 3 4 5 4 4 4 4 3 2 2 4 3 3 3 4 5 4 3 4 3 3 3 4 3 3 5 4 3
2 5 7 6 5 5 5 5 4 4 5 6 6 5 5 4 5 5 5 4 2 3 3 4 5 6 4 5 4 4 4 4 4 3 3 1 2 5 4 4 3 4 4
5 3 6 6 5 5 6 6 5 5 5 5 5 5 5 6 6 5 5 4 3 2 5 5 4 6 7 8 7 6 5 6 4 4 2 2 3 5 5 1 3 4 5
5 4 4 4 3 4 5 5 6 6 6 5 5 6 6 6 5 6 6 5 2 5 6 5 6 9 10 6 7 8 6 5 3 1 0 1 3 4 4 3 5 4 5
Wind_Direction
141 137 127 141 122 67 45 39 42 51 55 42 57 85 79 114 132 134 152 137 130 143 160 188 159 184 221 56 212 234 241 124 154 322 175 79 72 74 59 67 105 100 77
179 156 153 156 134 133 47 54 58 58 59 80 55 56 58 52 60 85 81 86 100 88 82 89 74 87 79 56 28 291 136 95 133 139 156 214 67 79 128 128 96 100 92
173 144 166 173 161 135 100 62 63 73 59 59 83 76 59 57 76 77 79 77 74 69 64 63 47 65 67 60 39 25 30 17 352 130 133 57 100 57 71 84 107 93 89
153 150 142 163 170 149 134 101 78 82 76 67 70 71 71 71 70 76 91 88 79 73 70 63 50 48 49 51 48 25 24 5 10 76 79 72 72 158 99 116 99 76 77
156 149 153 162 160 118 124 129 103 92 84 76 78 77 78 70 75 83 84 85 84 76 63 62 58 74 71 66 72 36 32 25 326 72 108 113 198 214 186 211 143 121 64
159 158 154 135 118 115 121 108 89 82 78 69 63 59 53 54 57 95 96 92 86 89 89 78 73 72 76 74 73 64 56 52 329 201 77 80 38 32 17 313 87 110 123
144 150 145 140 127 120 89 88 84 85 81 71 66 61 47 23 6 100 103 91 88 101 105 97 87 71 64 79 69 67 58 58 61 72 90 63 63 0 319 44 45 75 107
303 137 153 146 108 99 96 92 88 85 78 74 67 60 53 27 16 106 86 82 71 57 50 71 86 110 131 113 96 77 64 55 58 75 89 96 84 30 59 107 63 79 77
344 127 101 103 110 112 106 97 91 88 79 71 55 49 49 34 14 100 99 89 79 64 53 42 48 62 96 103 94 85 78 74 62 87 97 92 74 61 53 59 28 45 60
26 73 92 104 106 100 104 100 91 87 88 79 69 45 45 45 31 62 103 99 92 84 58 47 51 65 55 52 77 88 84 51 58 71 72 74 68 63 58 62 63 50 3
41 74 79 85 84 86 85 80 92 87 81 73 72 56 50 48 39 55 65 84 85 78 64 46 43 63 61 58 58 50 31 28 22 49 39 49 79 64 77 85 93 143 172
54 66 78 81 86 92 99 92 84 95 92 79 72 67 46 51 58 60 60 67 88 91 68 53 44 68 71 65 63 57 34 30 28 26 42 61 104 116 175 202 176 169 175
74 68 71 77 82 81 90 92 91 84 87 86 86 76 65 45 60 66 78 83 88 89 94 99 78 61 69 63 69 67 38 22 37 50 35 20 46 16 62 40 24 302 261
86 78 75 74 79 79 78 79 86 86 87 95 89 86 73 40 53 49 57 63 80 74 110 125 200 332 340 51 74 45 34 37 64 65 55 5 356 24 37 24 15 343 15
86 84 82 80 82 76 64 68 77 48 86 104 104 109 111 95 61 0 345 148 137 185 180 42 17 23 19 5 26 38 40 40 32 4 32 43 42 46 2 356 27 338 48
97 96 96 93 85 83 86 76 53 78 77 80 93 106 68 104 91 91 80 44 16 29 72 79 59 55 53 47 58 58 23 31 19 24 29 40 34 25 356 342 357 57 50
118 122 120 113 109 109 105 108 104 31 63 71 79 84 92 117 85 58 33 3 26 65 89 87 86 69 53 70 66 61 31 17 28 30 28 21 31 17 17 340 355 66 25
118 114 116 131 135 137 144 138 137 130 113 70 28 84 79 65 32 20 15 11 32 35 105 106 89 70 68 69 51 53 20 7 17 9 21 35 36 31 1 349 14 14 356
138 143 152 164 157 156 162 167 172 135 121 120 89 22 300 294 304 294 332 102 75 91 112 111 114 106 95 73 25 11 342 253 278 33 21 30 13 28 347 346 353 357 322
168 139 125 146 141 155 167 163 136 128 130 151 156 178 197 75 341 315 350 92 79 70 80 102 148 139 141 108 64 355 337 324 81 62 47 24 357 7 343 345 358 354 322
122 129 154 148 119 100 103 107 101 132 148 159 164 171 176 183 247 171 120 93 88 84 68 48 110 200 138 132 87 20 23 84 103 80 53 20 9 356 335 341 346 327 309
153 161 143 122 104 103 118 120 128 126 143 144 154 184 169 130 125 108 111 118 120 128 127 78 15 97 159 146 160 203 15 110 76 70 61 15 355 349 315 341 330 312 342
72 146 139 124 121 138 141 150 154 145 153 155 152 161 145 145 136 117 115 127 126 142 168 179 62 67 68 55 24 80 106 115 110 105 74 355 339 334 330 336 334 327 2
306 190 162 150 155 166 158 170 181 151 147 151 172 168 157 144 131 132 133 136 149 191 178 110 100 87 66 64 86 83 90 99 99 83 71 9 327 338 341 334 312 347 350
4 23 142 163 183 180 174 183 180 181 162 152 158 156 151 141 150 164 154 157 200 115 128 123 118 105 105 122 124 119 106 87 94 84 43 353 331 334 315 290 339 335 328
343 297 121 154 205 209 189 192 168 171 174 184 158 160 157 169 177 158 158 156 150 145 149 153 165 154 159 143 143 149 145 149 135 118 357 318 319 314 310 311 316 309 308